Tracking 29487 objects as of 10-Sep-2024
HD Live streaming from Space Station
objects crossing your sky now

DELTA 1 DEB

Track DELTA 1 DEB now!
10-day predictions


NORAD ID: 10758
Int'l Code: 1976-077BF
Perigee: 1,507.5 km
Apogee: 1,755.0 km
Inclination: 102.4 °
Period: 118.7 minutes
Semi major axis: 8002 km
RCS: 0.23 m2 (medium)
Launch date: July 29, 1976
Source: United States (US)
Launch site: AIR FORCE WESTERN TEST RANGE (AFWTR)

Note: This is SATELLITE DEBRIS
Your satellite tracking list
Your tracking list is empty




NASA's NSSDC Master Catalog

Two Line Element Set (TLE):
1 10758U 76077BF  24253.75136135  .00000048  00000-0  93068-3 0  9996
2 10758 102.3707 216.0322 0154630 228.6483 204.4902 12.12781320130823
Source of the keplerian elements: AFSPC